TimeAEST,TemperatureF,Dew PointF,Humidity,Sea Level PressureIn,VisibilityMPH,Wind Direction,Wind SpeedMPH,Gust SpeedMPH,PrecipitationIn,Events,Conditions,WindDirDegrees,DateUTC
12:00 AM,76,72,82,29.84,,SSE,9.2,,,,Overcast,160,2013-01-05 14:00:00
12:00 AM,77.0,71.6,83,29.83,6.2,SSE,9.2,-,N/A,,Mostly Cloudy,160,2013-01-05 14:00:00
12:30 AM,77.0,71.6,83,29.83,6.2,SSE,10.4,-,N/A,,Partly Cloudy,150,2013-01-05 14:30:00
1:00 AM,76,71,80,29.83,,South,12.7,,,,,190,2013-01-05 15:00:00
1:00 AM,77.0,71.6,83,29.83,6.2,South,12.7,-,N/A,,Partly Cloudy,190,2013-01-05 15:00:00
1:30 AM,77.0,71.6,83,29.80,6.2,South,12.7,-,N/A,,Scattered Clouds,190,2013-01-05 15:30:00
2:00 AM,77.0,69.8,78,29.80,6.2,SSW,10.4,-,N/A,,Partly Cloudy,200,2013-01-05 16:00:00
2:30 AM,77.0,69.8,78,29.80,6.2,South,10.4,-,N/A,,Partly Cloudy,180,2013-01-05 16:30:00
3:00 AM,77,70,73,29.80,,South,11.5,,,,,180,2013-01-05 17:00:00
3:00 AM,77.0,69.8,78,29.80,6.2,South,11.5,-,N/A,,Partly Cloudy,180,2013-01-05 17:00:00
3:30 AM,77.0,69.8,78,29.77,6.2,South,11.5,-,N/A,,Partly Cloudy,190,2013-01-05 17:30:00
4:00 AM,76,70,76,29.80,,South,11.5,,,,,180,2013-01-05 18:00:00
4:00 AM,77.0,69.8,78,29.80,-9999.0,South,11.5,-,N/A,,Unknown,180,2013-01-05 18:00:00
4:30 AM,77.0,69.8,78,29.80,6.2,South,11.5,-,N/A,,Partly Cloudy,190,2013-01-05 18:30:00
5:00 AM,77.0,69.8,78,29.80,6.2,South,12.7,-,N/A,,Partly Cloudy,180,2013-01-05 19:00:00
5:30 AM,77.0,69.8,78,29.80,6.2,South,9.2,-,N/A,,Partly Cloudy,170,2013-01-05 19:30:00
6:00 AM,76,69,73,29.83,9,SSE,9.2,,,,Mostly Cloudy,150,2013-01-05 20:00:00
6:00 AM,75.2,69.8,83,29.83,6.2,SSE,9.2,-,N/A,,Scattered Clouds,150,2013-01-05 20:00:00
6:30 AM,77.0,68.0,74,29.83,6.2,South,10.4,-,N/A,,Partly Cloudy,180,2013-01-05 20:30:00
7:00 AM,78,68,65,29.85,,South,11.5,,,,,180,2013-01-05 21:00:00
7:00 AM,78.8,68.0,69,29.83,6.2,South,11.5,-,N/A,,Scattered Clouds,180,2013-01-05 21:00:00
7:30 AM,78.8,68.0,69,29.83,6.2,South,11.5,-,N/A,,Partly Cloudy,180,2013-01-05 21:30:00
8:00 AM,82.4,69.8,66,29.83,6.2,South,12.7,-,N/A,,Partly Cloudy,170,2013-01-05 22:00:00
8:30 AM,82.4,69.8,66,29.83,6.2,SSE,12.7,-,N/A,,Partly Cloudy,160,2013-01-05 22:30:00
9:00 AM,85,70,51,29.86,16,SSE,15.0,,,,Partly Cloudy,160,2013-01-05 23:00:00
9:00 AM,84.2,69.8,62,29.86,6.2,SSE,15.0,-,N/A,,Partly Cloudy,160,2013-01-05 23:00:00
9:30 AM,86.0,68.0,55,29.83,6.2,SSE,20.7,-,N/A,,Scattered Clouds,150,2013-01-05 23:30:00
10:00 AM,86.0,69.8,58,29.83,6.2,SE,20.7,-,N/A,,Scattered Clouds,140,2013-01-06 00:00:00
10:30 AM,84.2,69.8,62,29.83,6.2,SE,21.9,-,N/A,,Scattered Clouds,130,2013-01-06 00:30:00
11:00 AM,86.0,64.4,48,29.83,6.2,SE,20.7,-,N/A,,Mostly Cloudy,140,2013-01-06 01:00:00
11:30 AM,86.0,68.0,55,29.83,6.2,SE,23.0,-,N/A,,Mostly Cloudy,130,2013-01-06 01:30:00
11:54 AM,84.2,66.2,55,29.83,6.2,South,12.7,-,N/A,,Mostly Cloudy,170,2013-01-06 01:54:00
12:00 PM,85,66,43,29.83,12,South,13.8,,,,Partly Cloudy,170,2013-01-06 02:00:00
12:00 PM,84.2,66.2,55,29.83,6.2,South,13.8,-,N/A,,Mostly Cloudy,170,2013-01-06 02:00:00
12:30 PM,86.0,68.0,55,29.80,6.2,South,18.4,-,N/A,,Scattered Clouds,170,2013-01-06 02:30:00
1:00 PM,87,69,46,29.82,,SSE,20.7,,,,,150,2013-01-06 03:00:00
1:00 PM,86.0,69.8,58,29.80,6.2,SSE,20.7,-,N/A,,Scattered Clouds,150,2013-01-06 03:00:00
1:04 PM,87.8,69.8,55,29.80,6.2,SSE,18.4,29.9,N/A,,Scattered Clouds,150,2013-01-06 03:04:00
1:30 PM,87.8,69.8,55,29.80,6.2,SE,19.6,-,N/A,,Scattered Clouds,130,2013-01-06 03:30:00
2:00 PM,87.8,69.8,55,29.77,6.2,SE,21.9,-,N/A,,Scattered Clouds,130,2013-01-06 04:00:00
2:30 PM,87.8,69.8,55,29.77,6.2,SE,21.9,-,N/A,,Partly Cloudy,130,2013-01-06 04:30:00
3:00 PM,88,69,44,29.78,16,ESE,21.9,,,,Partly Cloudy,120,2013-01-06 05:00:00
3:00 PM,87.8,69.8,55,29.77,6.2,ESE,21.9,-,N/A,,Partly Cloudy,120,2013-01-06 05:00:00
3:30 PM,87.8,68.0,52,29.77,6.2,ESE,23.0,-,N/A,,Scattered Clouds,120,2013-01-06 05:30:00
4:00 PM,85,70,52,29.79,,SE,21.9,,,,,130,2013-01-06 06:00:00
4:00 PM,86.0,69.8,58,29.77,6.2,SE,21.9,-,N/A,Rain,Light Rain Showers,130,2013-01-06 06:00:00
4:30 PM,84.2,69.8,62,29.77,6.2,SE,19.6,-,N/A,,Mostly Cloudy,130,2013-01-06 06:30:00
4:43 PM,82.4,73.4,74,29.80,4.3,SE,21.9,33.4,N/A,Rain,Light Rain Showers,130,2013-01-06 06:43:00
5:00 PM,80.6,73.4,79,29.80,5.0,ESE,15.0,26.5,N/A,,Mostly Cloudy,110,2013-01-06 07:00:00
5:30 PM,82.4,73.4,74,29.80,6.2,ESE,15.0,-,N/A,,Scattered Clouds,120,2013-01-06 07:30:00
6:00 PM,81,72,68,29.81,,SE,17.3,,,,Overcast,140,2013-01-06 08:00:00
6:02 PM,78.8,73.4,83,29.80,5.6,SE,19.6,33.4,N/A,Rain,Light Rain Showers,140,2013-01-06 08:02:00
6:30 PM,78.8,71.6,78,29.80,6.2,South,12.7,-,N/A,,Scattered Clouds,170,2013-01-06 08:30:00
7:00 PM,78,72,78,29.83,,SSE,10.4,,,,,160,2013-01-06 09:00:00
7:00 PM,78.8,73.4,83,29.83,6.2,SSE,10.4,-,N/A,,Scattered Clouds,160,2013-01-06 09:00:00
7:30 PM,78.8,73.4,83,29.83,6.2,South,9.2,-,N/A,,Scattered Clouds,170,2013-01-06 09:30:00
8:00 PM,78.8,73.4,83,29.83,6.2,South,9.2,-,N/A,,Mostly Cloudy,170,2013-01-06 10:00:00
8:28 PM,77.0,73.4,89,29.83,6.2,SSE,17.3,-,N/A,Rain,Light Rain Showers,150,2013-01-06 10:28:00
8:30 PM,77.0,73.4,89,29.83,5.6,SSE,17.3,-,N/A,Rain,Light Rain Showers,150,2013-01-06 10:30:00
9:00 PM,77,73,84,29.85,,SSE,11.5,,,,Overcast,160,2013-01-06 11:00:00
9:00 PM,77.0,73.4,89,29.83,6.2,SSE,11.5,-,N/A,,Scattered Clouds,160,2013-01-06 11:00:00
9:30 PM,77.0,73.4,89,29.86,6.2,South,10.4,-,N/A,Rain,Light Rain Showers,180,2013-01-06 11:30:00
10:00 PM,76,73,88,29.86,,South,10.4,,,,,180,2013-01-06 12:00:00
10:00 PM,77.0,73.4,89,29.83,6.2,South,10.4,-,N/A,Rain,Light Rain Showers,180,2013-01-06 12:00:00
10:38 PM,77.0,73.4,89,29.83,3.1,South,11.5,-,N/A,Rain,Rain Showers,180,2013-01-06 12:38:00
10:49 PM,75.2,73.4,94,29.83,5.6,South,13.8,-,N/A,Rain,Light Rain Showers,180,2013-01-06 12:49:00
11:00 PM,75.2,73.4,94,29.83,5.6,South,13.8,-,N/A,Rain,Light Rain Showers,190,2013-01-06 13:00:00
11:30 PM,75.2,73.4,94,29.83,5.6,South,11.5,-,N/A,Rain,Light Rain Showers,190,2013-01-06 13:30:00
11:38 PM,75.2,73.4,94,29.83,3.7,South,13.8,-,N/A,Rain,Light Rain Showers,180,2013-01-06 13:38:00